Temperature
31 31 32 31 32 32 31 31 30 29 28 28 28 28 27 27 26 26 25 24 23 23 22 21 20 20 19 19 18 18 18 18 17 17 16 16 16 16 16 16 15 15 15 15
30 31 31 31 32 32 32 31 30 30 28 29 28 27 26 26 26 25 24 24 23 22 21 20 20 19 19 18 18 18 18 17 17 17 16 16 16 16 15 15 15 15 15 15
29 30 31 30 31 32 31 31 31 29 28 28 27 27 26 26 25 25 24 23 22 22 21 20 19 19 18 18 18 18 17 17 16 16 16 15 15 15 15 15 15 15 14 14
29 29 28 30 31 32 31 31 31 30 29 29 28 26 26 25 24 24 24 23 22 21 20 20 19 19 18 18 18 17 17 16 16 16 15 15 15 15 15 14 14 14 14 14
28 28 28 29 30 31 30 29 30 29 29 28 27 26 25 24 24 23 23 22 21 21 20 20 19 18 18 17 17 17 17 16 16 15 15 15 15 14 14 14 14 14 14 14
28 27 27 28 29 30 30 28 29 28 28 28 27 26 24 23 23 22 22 21 21 20 20 19 19 18 17 17 17 16 16 16 15 15 15 15 14 14 14 14 14 13 13 13
27 27 27 28 29 29 27 26 27 27 27 26 26 25 23 23 22 21 21 21 20 20 19 19 18 17 17 17 16 16 16 15 15 15 15 14 14 14 14 13 13 13 13 13
27 26 26 27 28 26 25 26 26 26 25 25 24 23 23 22 21 21 20 20 20 19 19 18 18 17 17 16 16 15 15 15 15 15 14 14 14 14 14 13 13 13 13 13
26 25 25 25 25 25 25 25 25 25 24 24 23 23 22 21 21 20 20 19 19 19 18 18 17 16 16 16 15 15 15 15 15 14 14 14 14 14 14 13 13 13 13 12
25 26 26 25 25 24 24 24 24 24 23 23 22 22 21 21 20 19 19 19 18 18 17 17 16 16 16 15 15 15 15 14 14 14 14 14 14 14 14 13 13 13 13 12
24 24 24 24 24 24 24 24 23 23 23 22 22 21 21 20 19 19 18 18 18 17 17 16 16 16 15 15 15 14 14 14 14 14 14 14 14 14 14 14 13 13 13 12
24 23 23 23 23 23 23 23 22 22 22 21 21 20 20 19 19 18 18 18 17 17 16 16 16 15 15 14 14 14 14 14 14 14 14 14 14 14 13 13 13 13 13 12
22 22 23 22 22 22 22 22 22 21 21 21 20 20 19 19 18 18 17 17 17 16 16 16 15 15 15 14 14 14 14 14 13 14 14 14 14 13 13 13 13 13 13 12
21 21 21 21 21 21 21 21 21 20 20 20 19 19 19 18 17 17 17 16 16 16 16 15 15 15 14 14 14 13 13 14 13 13 13 13 13 13 13 13 13 13 12 12
20 21 21 21 20 20 20 20 20 20 19 19 19 18 18 17 17 16 16 16 16 16 15 15 14 14 14 13 13 13 13 13 13 13 13 13 13 13 13 13 13 12 12 12
20 20 20 20 19 20 20 20 19 19 19 18 18 18 17 17 16 16 16 16 15 15 14 14 14 14 13 13 13 13 13 13 13 13 13 13 13 13 13 13 13 12 12 12
19 19 19 19 19 19 19 19 19 18 18 17 17 17 16 16 16 15 15 15 15 14 14 14 14 13 13 13 13 13 13 13 13 13 13 13 13 13 13 12 12 12 12 12
18 18 18 18 18 18 18 18 18 18 17 17 16 16 16 15 15 15 15 14 14 14 14 14 13 13 13 13 13 13 13 13 13 13 13 13 13 13 13 13 12 12 12 12
18 18 18 17 17 17 17 17 17 17 17 16 16 15 15 15 15 15 14 14 14 14 14 14 13 13 13 13 13 13 13 13 13 13 13 13 13 13 13 13 12 12 12 12
17 17 17 17 17 17 17 16 16 16 16 16 15 15 15 15 15 14 14 14 14 14 14 13 13 13 13 13 13 13 13 13 13 13 13 13 13 13 13 13 12 12 12 12
16 16 16 16 16 16 16 16 16 16 15 15 15 15 14 14 14 14 14 14 14 14 14 13 13 13 13 13 13 13 13 13 13 13 13 13 13 13 13 13 12 12 12 11
16 16 15 15 15 15 15 15 15 15 15 15 15 14 14 14 14 14 14 14 14 14 13 13 13 13 13 13 13 13 13 13 13 13 13 13 13 13 12 12 12 12 12 11
15 15 15 14 14 14 14 14 15 15 14 14 14 14 14 14 14 14 14 14 14 13 13 13 13 13 13 13 13 13 13 13 13 13 13 13 13 13 12 12 12 12 11 11
14 14 14 14 14 14 14 14 14 14 14 14 14 14 14 14 14 14 14 14 14 13 13 13 13 13 12 12 12 13 13 13 13 13 13 13 12 12 12 11 11 11 11 10
14 14 14 14 14 14 14 14 14 14 14 14 14 14 14 14 14 14 14 14 13 13 13 13 13 12 12 12 12 12 12 12 12 13 12 12 12 12 11 11 11 10 10 10
13 14 14 14 14 14 14 14 14 14 14 14 14 14 14 14 14 13 13 13 13 13 13 13 12 12 12 12 12 12 12 12 12 12 12 12 11 11 11 10 10 10 9 9
13 14 14 14 14 14 14 14 14 14 14 14 14 13 13 13 13 13 13 13 13 13 12 12 12 12 12 12 12 12 12 12 11 11 11 11 11 10 10 10 9 9 9 9
Wind_Speed
12 12 12 13 13 12 10 9 9 5 3 4 5 5 6 5 4 7 7 7 7 7 6 6 5 4 5 4 3 4 3 3 3 2 2 1 1 1 1 0 1 1 1 1
13 14 15 14 13 12 9 7 6 6 3 3 5 7 7 6 5 6 6 6 6 7 6 5 4 4 4 3 4 4 3 3 2 2 2 2 1 1 1 2 2 1 1 1
13 14 15 13 11 9 8 7 6 5 2 6 5 6 6 5 5 5 6 6 6 6 6 5 4 4 3 4 4 4 3 2 2 2 2 1 1 2 2 2 2 2 2 2
12 12 14 9 9 9 6 5 3 1 2 5 8 7 6 4 4 5 5 5 5 4 5 5 4 4 2 3 4 3 3 2 2 2 1 1 1 1 1 1 1 1 2 2
11 13 12 8 8 7 6 2 3 2 2 5 6 6 5 5 4 4 4 4 4 3 4 4 4 4 3 2 3 2 2 2 1 1 1 0 1 1 1 1 1 1 1 1
11 13 12 7 7 7 5 0 4 4 3 3 3 2 4 6 5 4 4 4 4 3 4 4 3 3 2 2 2 2 1 1 1 1 1 0 0 0 1 1 1 2 1 1
12 12 8 6 6 4 4 2 6 5 4 5 5 4 5 7 6 4 4 3 3 3 4 4 3 3 2 1 1 2 2 1 1 1 1 1 1 1 1 1 1 1 1 1
10 11 6 8 5 3 3 5 7 6 7 7 6 6 6 6 5 4 4 3 2 2 3 3 3 2 1 1 1 2 2 2 1 2 2 1 1 2 2 1 2 1 1 1
3 1 2 5 6 5 4 5 5 5 5 5 5 6 6 5 4 3 3 3 1 2 3 2 2 2 2 1 2 2 2 2 2 2 1 1 2 2 2 2 2 1 1 1
3 0 2 3 4 3 4 4 4 4 4 3 3 4 4 3 3 2 2 2 1 1 2 2 2 2 2 2 2 2 2 2 2 2 2 2 2 2 1 1 1 1 2 2
4 2 4 3 2 3 4 3 3 4 3 3 3 2 2 2 2 2 2 2 1 0 1 2 2 2 2 2 2 2 2 2 3 3 2 2 1 1 1 0 1 1 1 2
4 2 3 4 3 1 2 2 2 3 2 2 1 1 1 2 2 2 1 1 1 0 0 1 2 2 2 2 2 3 3 3 2 2 2 2 1 1 3 1 3 2 0 1
6 4 3 3 4 3 1 1 1 2 2 1 1 1 1 1 1 1 1 1 0 0 1 1 2 2 2 2 2 3 3 3 2 2 1 2 1 1 0 0 1 1 0 0
6 6 5 4 4 4 3 2 1 1 1 1 1 1 1 1 1 1 1 1 1 0 1 1 2 2 2 1 2 2 3 3 2 2 2 2 1 2 2 1 1 1 2 3
6 5 5 5 5 5 4 3 3 2 1 1 1 0 1 1 1 1 1 1 1 1 0 1 2 1 1 1 2 2 3 2 1 2 2 2 2 2 1 1 1 1 1 1
6 5 4 4 4 5 4 3 3 2 1 1 1 1 1 1 1 0 0 1 1 1 1 1 1 2 2 1 2 2 2 3 3 2 2 2 2 2 1 1 1 1 1 0
5 5 5 5 4 4 4 3 2 2 1 1 1 1 1 0 0 1 1 1 0 0 1 1 2 2 2 2 2 2 2 2 3 3 3 2 2 2 2 2 2 1 0 1
5 5 5 5 4 4 4 4 3 2 1 1 1 1 1 2 2 2 2 1 1 1 2 2 2 2 3 3 3 3 3 3 3 3 3 2 2 3 3 2 2 2 1 1
3 3 3 3 4 4 4 4 3 1 0 1 2 2 2 2 2 3 3 2 2 3 3 3 4 4 4 3 3 3 4 4 3 3 3 2 3 3 3 3 2 2 2 1
3 3 3 3 3 3 3 3 3 2 1 1 2 3 3 3 3 3 3 3 3 3 2 2 4 4 4 3 3 4 4 4 4 3 3 3 3 3 3 3 3 3 2 1
2 3 2 2 3 3 3 3 3 3 2 2 3 3 4 4 4 3 3 3 2 2 2 4 4 3 3 2 4 5 5 4 4 3 3 3 3 3 3 3 3 2 2 1
3 3 2 2 2 3 3 3 3 3 3 3 3 3 4 4 5 4 3 3 2 3 3 3 2 1 1 3 5 5 4 4 4 3 3 3 3 3 3 3 3 2 2 1
3 2 1 2 3 3 3 4 4 3 3 3 3 3 4 4 4 3 3 2 1 3 3 2 2 3 2 3 4 4 4 4 4 3 3 3 2 2 2 3 2 2 1 1
3 3 2 2 3 3 4 5 4 3 3 3 3 4 4 4 3 2 1 3 3 3 2 3 5 5 5 4 3 3 4 4 4 3 3 2 2 2 2 2 2 1 1 1
3 3 3 3 4 3 4 4 4 3 3 3 3 2 3 2 1 0 0 2 4 3 2 4 7 7 5 4 3 3 3 3 3 3 3 2 2 2 1 1 1 2 2 1
3 3 3 3 3 3 3 3 3 2 2 2 2 1 1 1 1 1 0 1 1 2 1 1 2 5 4 3 3 2 2 1 2 3 2 2 2 2 2 2 2 2 2 2
3 3 2 3 3 3 3 2 2 2 1 1 1 2 2 1 1 1 1 0 0 0 1 1 1 2 2 2 2 2 2 2 2 3 3 3 3 3 3 3 3 3 2 2
Wind_Direction
283 285 281 275 277 275 264 268 284 284 265 168 164 146 134 129 134 127 126 129 124 117 114 118 113 110 111 107 96 100 114 117 110 105 87 75 60 51 47 325 328 348 316 316
279 279 281 275 274 275 274 279 281 278 285 136 131 135 135 140 143 141 136 130 123 118 118 119 121 116 106 98 91 97 100 96 92 85 76 65 51 41 26 17 3 345 331 327
279 282 284 273 278 276 282 285 270 273 205 157 149 141 139 143 153 143 138 127 120 126 131 129 128 121 113 111 108 107 101 84 82 80 77 63 26 32 28 24 12 348 342 345
274 276 271 278 302 299 288 292 325 6 152 153 135 138 128 135 144 139 133 128 129 141 142 142 134 134 123 125 125 127 129 120 95 90 82 76 70 31 1 356 321 320 336 344
266 268 266 272 288 294 290 319 11 2 92 111 122 118 104 108 124 123 118 119 131 148 147 141 147 148 146 155 145 142 140 135 120 111 101 93 73 8 346 332 320 310 328 337
254 263 266 279 314 335 318 219 29 22 31 96 118 140 108 98 93 86 94 105 115 133 134 134 144 141 146 154 152 141 137 131 135 166 153 178 159 254 294 294 295 295 335 345
253 261 266 308 317 321 297 32 32 42 42 71 75 77 100 105 97 91 86 91 111 133 133 131 129 125 143 171 161 143 139 139 163 198 211 210 191 202 270 280 281 298 305 297
252 260 274 1 359 19 54 49 48 42 52 64 75 85 89 89 88 96 95 94 94 114 108 115 121 122 138 145 128 139 156 157 186 197 226 223 201 230 234 253 263 260 264 269
264 251 75 46 51 54 66 62 51 49 59 67 74 93 91 79 70 74 88 100 116 122 121 125 131 134 164 153 158 170 176 183 197 198 195 210 223 232 233 234 253 269 307 333
306 173 100 97 76 40 51 65 61 65 67 68 60 87 93 90 85 82 65 72 72 109 146 139 137 135 158 159 167 182 192 208 210 202 200 205 226 229 241 260 295 338 342 327
278 318 343 341 39 39 32 42 57 59 46 40 47 62 89 95 89 84 72 55 73 167 160 129 122 136 158 155 177 187 198 211 223 206 202 204 207 262 224 229 198 230 317 328
273 325 309 316 349 20 18 3 25 37 19 34 32 13 86 95 94 86 71 64 70 77 85 137 142 157 166 180 179 185 198 212 232 220 199 215 174 74 40 92 128 127 138 322
336 333 326 324 312 337 323 298 347 350 336 342 342 360 46 89 113 76 59 50 87 257 261 178 163 164 153 172 181 195 217 222 238 250 233 226 196 180 181 83 127 163 187 205
328 329 323 310 316 328 314 302 289 304 311 316 314 41 70 51 79 70 39 355 314 264 244 179 142 132 141 171 198 222 232 218 228 246 252 249 237 222 219 222 230 274 226 223
311 315 311 323 318 309 297 288 277 266 264 318 10 35 97 66 57 32 26 6 342 286 203 123 115 113 127 213 214 234 245 238 244 268 267 253 251 251 241 225 240 265 271 235
304 301 300 291 291 287 279 271 275 297 325 333 327 10 63 80 81 25 4 28 314 282 106 124 161 171 182 219 235 242 245 229 223 255 265 261 259 268 277 270 246 251 271 223
285 290 297 286 278 280 286 287 277 289 311 316 319 347 16 340 232 259 273 244 185 203 197 194 187 183 192 194 229 250 253 232 214 242 256 263 282 286 284 286 286 263 276 188
285 278 273 279 292 293 291 287 276 270 274 275 277 242 239 257 256 253 266 247 214 220 222 207 197 203 205 212 231 243 252 230 219 237 256 272 281 275 268 265 270 277 251 189
291 297 303 303 295 293 301 302 298 296 181 250 258 235 228 242 244 242 235 223 226 232 225 202 185 204 222 216 228 240 251 247 235 233 238 234 253 260 267 270 268 253 249 240
314 318 314 308 304 300 303 307 305 296 263 252 257 251 245 250 241 236 227 231 238 251 232 192 201 219 225 211 231 251 257 257 251 248 246 242 250 258 262 269 280 287 280 262
309 304 309 319 315 309 295 290 285 285 281 268 265 266 271 271 259 248 246 242 216 213 221 194 214 222 212 216 234 251 256 259 259 257 255 259 261 265 269 271 271 281 283 277
305 295 294 309 310 312 315 297 278 278 274 272 270 266 268 268 259 251 249 250 216 173 205 216 218 177 198 235 248 257 265 267 265 260 260 259 260 263 268 277 276 271 279 281
322 316 311 309 304 308 311 304 292 278 273 271 271 265 263 271 272 258 246 234 192 176 205 212 144 148 196 254 265 268 275 275 270 266 268 265 262 268 275 282 281 286 303 322
328 312 290 286 289 288 288 291 294 286 279 271 256 249 250 252 256 251 211 142 134 161 199 167 169 189 229 250 265 268 273 281 281 272 269 274 275 274 285 307 312 315 356 12
302 292 283 280 268 258 255 259 254 248 263 265 262 247 247 251 252 275 107 129 149 173 204 191 195 212 227 248 259 269 274 294 301 300 301 300 297 300 325 331 346 352 350 355
280 278 278 270 280 280 268 261 264 272 283 293 305 316 356 45 38 21 116 188 195 193 222 235 204 215 230 243 256 273 289 294 301 303 324 337 344 359 17 13 12 7 3 6
273 269 258 262 255 255 263 265 262 276 275 296 336 349 3 32 42 6 319 256 184 214 267 281 262 250 261 289 311 333 347 351 355 351 357 360 9 21 29 34 31 20 8 13
Height
1453 1450 1449 1451 1450 1447 1451 1454 1461 1463 1464 1461 1460 1464 1467 1470 1473 1476 1479 1482 1485 1488 1490 1493 1494 1496 1497 1499 1500 1500 1501 1500 1500 1500 1500 1500 1500 1499 1499 1498 1498 1497 1496 1496
1458 1452 1448 1449 1445 1444 1445 1446 1453 1455 1459 1456 1457 1463 1467 1470 1474 1476 1480 1482 1485 1488 1490 1492 1494 1496 1497 1498 1498 1499 1500 1499 1499 1499 1499 1499 1498 1498 1498 1497 1496 1495 1495 1494
1464 1453 1450 1455 1445 1443 1444 1443 1447 1455 1458 1457 1460 1463 1467 1470 1473 1476 1479 1482 1485 1488 1489 1491 1493 1494 1495 1496 1497 1498 1498 1499 1499 1498 1498 1498 1498 1497 1496 1495 1495 1494 1493 1492
1462 1462 1475 1454 1439 1438 1441 1443 1443 1446 1450 1453 1458 1463 1467 1471 1474 1477 1479 1482 1485 1487 1489 1491 1492 1493 1494 1495 1495 1496 1497 1497 1497 1497 1497 1496 1496 1495 1495 1494 1494 1493 1492 1490
1463 1466 1461 1450 1442 1441 1444 1450 1447 1449 1451 1454 1459 1463 1468 1471 1475 1477 1480 1482 1484 1486 1488 1490 1491 1492 1493 1493 1493 1494 1495 1495 1495 1495 1495 1495 1494 1494 1493 1492 1492 1491 1490 1489
1460 1468 1472 1457 1445 1443 1446 1456 1452 1452 1455 1456 1458 1465 1471 1473 1476 1478 1480 1482 1483 1485 1487 1488 1489 1490 1491 1491 1491 1492 1492 1493 1493 1493 1493 1493 1493 1492 1492 1491 1490 1490 1489 1488
1459 1463 1458 1449 1446 1447 1462 1465 1456 1456 1458 1459 1463 1467 1472 1473 1476 1478 1480 1482 1483 1484 1485 1486 1487 1488 1489 1490 1490 1490 1491 1491 1491 1492 1492 1492 1492 1491 1490 1490 1489 1488 1487 1486
1458 1466 1467 1453 1449 1457 1463 1459 1460 1460 1462 1464 1467 1469 1472 1474 1476 1477 1478 1480 1482 1483 1484 1485 1486 1486 1487 1488 1488 1488 1489 1489 1489 1490 1490 1490 1490 1489 1489 1488 1488 1487 1486 1485
1455 1461 1459 1458 1459 1460 1460 1462 1463 1464 1465 1467 1469 1471 1473 1475 1477 1478 1479 1480 1481 1482 1483 1484 1484 1484 1485 1485 1486 1486 1486 1486 1487 1487 1488 1488 1488 1488 1487 1487 1486 1486 1485 1484
1454 1454 1456 1458 1461 1462 1463 1464 1465 1466 1468 1469 1470 1472 1474 1475 1477 1478 1479 1479 1481 1482 1482 1482 1482 1482 1483 1483 1483 1483 1484 1484 1485 1485 1485 1486 1486 1486 1486 1486 1485 1485 1484 1483
1456 1457 1458 1459 1461 1463 1463 1465 1466 1467 1469 1470 1471 1473 1474 1475 1477 1478 1478 1478 1479 1480 1481 1481 1480 1480 1481 1481 1481 1481 1481 1482 1483 1484 1484 1484 1484 1485 1484 1484 1484 1483 1483 1482
1459 1459 1462 1463 1462 1464 1464 1466 1467 1468 1470 1471 1472 1473 1474 1475 1476 1477 1477 1478 1478 1479 1479 1479 1479 1479 1479 1479 1479 1479 1479 1480 1481 1482 1482 1482 1482 1483 1483 1483 1482 1482 1481 1481
1461 1461 1461 1463 1464 1464 1466 1467 1468 1469 1470 1471 1472 1473 1473 1474 1475 1475 1476 1477 1477 1477 1477 1477 1477 1477 1477 1477 1477 1477 1478 1479 1480 1480 1480 1480 1481 1481 1481 1481 1481 1480 1480 1479
1463 1462 1462 1463 1464 1465 1466 1467 1468 1469 1470 1471 1471 1472 1472 1473 1474 1474 1475 1475 1476 1476 1476 1476 1475 1475 1475 1475 1475 1475 1476 1477 1478 1478 1479 1479 1479 1479 1479 1479 1478 1478 1478 1477
1463 1463 1463 1463 1463 1464 1465 1466 1467 1468 1469 1470 1470 1471 1471 1472 1473 1473 1474 1474 1474 1475 1474 1474 1474 1474 1473 1473 1474 1474 1475 1476 1476 1477 1478 1478 1478 1478 1478 1477 1477 1476 1476 1475
1463 1463 1463 1464 1464 1465 1465 1466 1467 1468 1468 1469 1470 1470 1471 1471 1472 1472 1472 1472 1473 1473 1472 1472 1472 1472 1472 1472 1472 1473 1474 1474 1475 1476 1476 1476 1476 1476 1476 1475 1475 1474 1474 1473
1463 1463 1463 1463 1464 1465 1465 1465 1466 1467 1467 1468 1469 1469 1470 1471 1471 1471 1471 1471 1471 1471 1471 1470 1470 1471 1471 1471 1471 1472 1473 1473 1473 1474 1475 1475 1474 1474 1474 1474 1473 1473 1472 1471
1463 1463 1463 1463 1464 1464 1464 1465 1465 1466 1466 1467 1467 1468 1469 1470 1469 1469 1470 1470 1469 1469 1469 1469 1469 1469 1469 1470 1470 1470 1471 1471 1472 1473 1473 1473 1473 1473 1473 1472 1472 1471 1470 1470
1462 1462 1462 1463 1463 1464 1464 1464 1464 1465 1465 1466 1466 1467 1467 1468 1468 1468 1468 1467 1467 1467 1467 1467 1467 1467 1467 1468 1468 1469 1469 1470 1470 1471 1471 1472 1471 1471 1471 1471 1470 1470 1469 1468
1461 1461 1461 1462 1462 1463 1463 1463 1463 1464 1464 1465 1465 1466 1466 1466 1466 1466 1465 1465 1465 1465 1464 1464 1464 1465 1465 1465 1466 1467 1468 1468 1468 1469 1469 1469 1469 1469 1469 1469 1469 1468 1467 1466
1460 1461 1461 1461 1461 1462 1462 1462 1462 1462 1463 1463 1464 1463 1463 1463 1463 1463 1463 1463 1462 1463 1462 1462 1462 1462 1462 1463 1464 1465 1466 1466 1467 1467 1467 1467 1467 1467 1467 1467 1466 1466 1465 1464
1460 1460 1460 1460 1460 1460 1460 1460 1460 1460 1461 1461 1461 1461 1461 1461 1461 1460 1460 1461 1460 1460 1460 1461 1461 1460 1460 1461 1462 1463 1463 1464 1464 1464 1464 1464 1464 1464 1464 1464 1464 1463 1462 1462
1458 1458 1458 1459 1459 1459 1458 1458 1459 1459 1459 1458 1458 1458 1458 1458 1458 1458 1458 1458 1457 1457 1458 1459 1459 1459 1459 1459 1460 1461 1461 1461 1462 1462 1462 1461 1461 1461 1461 1461 1460 1460 1459 1459
1457 1457 1457 1457 1458 1457 1457 1457 1457 1457 1456 1456 1456 1456 1456 1456 1455 1455 1455 1455 1455 1455 1456 1457 1457 1457 1457 1458 1458 1458 1458 1459 1459 1459 1459 1459 1458 1458 1458 1457 1457 1457 1456 1456
1456 1456 1456 1455 1455 1455 1455 1455 1455 1455 1455 1454 1454 1453 1454 1454 1454 1454 1454 1453 1453 1454 1454 1455 1455 1455 1456 1456 1456 1456 1456 1456 1456 1456 1456 1456 1456 1455 1455 1454 1454 1453 1453 1452
1455 1454 1454 1454 1454 1454 1454 1453 1453 1453 1453 1453 1452 1452 1452 1452 1453 1453 1453 1452 1453 1453 1453 1453 1454 1454 1454 1455 1455 1455 1454 1454 1454 1453 1453 1453 1453 1452 1452 1451 1451 1450 1449 1449
1453 1453 1452 1452 1452 1452 1452 1452 1452 1452 1452 1452 1451 1452 1451 1451 1451 1451 1452 1452 1452 1452 1452 1452 1452 1453 1453 1453 1453 1452 1452 1451 1451 1451 1451 1450 1450 1449 1449 1448 1448 1447 1446 1445